GFSSE_850_thetae_273.txt.gz
Theta_e
348 339 340 331 326 329 331 332 333 333 331 329 327 326 324 324 325 326 325 325 325 325 325 326 326 326 326 326 326 327 330 333 335 337 338 334 331 327 327 327 323 346 340
346 346 338 332 329 329 332 333 334 334 331 328 326 324 324 325 326 325 324 323 323 323 323 323 324 324 324 324 324 324 324 324 326 333 336 339 343 339 336 335 329 336 335
345 346 342 335 335 335 335 336 336 332 327 324 324 325 326 325 323 322 323 323 324 325 324 323 323 323 323 323 324 324 324 324 323 323 324 329 343 344 342 340 338 334 328
343 347 345 342 343 340 339 335 331 326 325 325 326 325 323 323 328 332 334 334 334 334 334 334 334 333 332 330 328 326 326 324 324 323 325 336 335 338 336 341 339 339 337
343 344 341 341 337 334 332 328 325 326 326 325 324 325 330 334 337 337 337 336 335 334 333 332 332 332 332 332 332 332 333 334 334 333 339 339 339 339 335 332 339 339 340
342 345 331 330 329 326 326 326 326 325 325 328 334 337 338 339 338 338 338 338 337 337 336 335 334 334 333 333 334 334 332 330 330 338 342 344 342 339 334 332 328 335 342
342 343 332 329 328 328 327 326 325 330 336 338 338 337 336 336 336 336 337 337 336 336 336 336 336 336 335 335 334 334 334 334 334 341 341 343 341 343 343 341 325 327 336
340 342 340 328 327 326 325 326 331 335 336 336 336 336 336 335 334 333 333 333 334 334 335 335 336 336 336 336 335 335 334 334 334 340 340 339 341 342 341 339 330 325 331
339 340 340 339 326 325 328 333 337 337 337 337 337 336 333 330 328 328 327 328 328 330 331 332 333 334 335 336 335 335 335 335 334 336 337 341 340 342 340 336 335 330 329
338 339 341 341 341 342 336 338 339 338 337 338 337 332 326 323 317 318 315 314 314 314 314 314 317 320 325 328 332 333 334 334 333 337 334 342 340 341 337 336 335 333 332
339 340 342 343 345 344 341 339 338 337 338 338 334 325 323 323 317 322 318 316 315 314 313 314 314 313 313 315 327 328 326 329 334 334 334 338 338 341 338 335 337 335 335
340 342 342 347 345 344 341 341 339 337 337 338 329 319 322 321 319 319 321 318 319 319 320 321 321 321 322 323 322 323 327 327 330 332 332 334 335 335 334 334 336 333 331
341 342 344 344 344 344 342 341 339 336 334 329 321 317 321 323 318 320 321 320 321 320 321 321 321 322 322 322 322 321 321 321 322 325 328 331 331 332 334 334 333 335 330
343 343 347 346 347 346 343 341 338 334 332 327 322 315 319 322 315 319 320 321 321 321 321 321 321 322 321 321 321 320 320 320 320 321 324 327 328 329 331 334 333 333 332
344 345 346 346 347 342 341 342 338 334 331 324 323 316 315 318 312 321 322 321 321 321 321 321 322 321 321 322 322 323 323 322 321 321 322 323 323 325 327 331 333 333 333
345 346 346 345 341 341 341 341 337 335 327 324 323 315 314 315 311 321 321 320 320 319 319 320 320 320 321 322 322 323 325 325 326 327 328 327 329 329 328 325 331 333 333
347 347 345 341 341 341 340 338 333 327 324 323 323 319 312 311 319 321 320 320 319 318 318 319 319 321 321 321 322 323 324 323 324 325 325 328 330 327 327 322 329 332 333
347 343 340 338 338 338 337 336 329 325 323 322 322 320 315 319 318 320 319 318 317 317 318 319 320 319 319 320 321 322 321 323 325 325 325 325 325 327 327 326 329 331 331
344 341 339 337 336 334 335 333 328 316 322 322 320 319 317 320 319 320 318 316 315 316 318 318 319 319 319 318 318 319 321 322 322 323 323 324 325 324 324 324 323 322 322
340 339 337 335 333 334 333 328 324 322 322 320 319 319 318 319 318 318 316 315 314 316 317 318 318 318 319 319 319 317 318 320 320 321 322 323 321 321 321 320 319 317 316
338 338 336 335 334 334 329 324 324 324 322 320 320 319 318 318 317 317 314 313 314 314 315 316 318 317 316 317 319 319 318 317 319 320 320 321 320 319 318 319 319 318 317
338 334 333 335 334 328 325 325 324 322 319 319 319 317 317 316 316 315 314 313 312 313 312 313 314 316 315 315 315 317 318 317 316 316 317 319 317 317 315 315 315 316 316
335 333 334 333 333 325 325 321 317 315 317 320 319 318 316 314 315 314 314 314 313 312 312 312 312 311 313 312 312 313 315 315 313 315 316 315 316 316 315 314 314 314 313
335 334 333 331 330 325 318 322 321 321 320 320 318 317 315 314 313 313 314 314 313 312 312 311 311 310 310 310 309 309 310 310 310 312 313 312 314 313 313 312 312 312 311
335 333 332 331 328 324 316 323 319 320 320 318 318 316 314 313 313 312 313 314 313 312 312 312 312 312 310 309 306 306 306 306 307 307 308 307 307 310 307 308 308 307 307
334 331 330 332 326 321 317 318 320 320 319 318 317 317 315 314 314 313 313 314 313 314 312 312 312 311 310 307 307 306 306 306 306 307 307 307 306 306 305 305 305 305 306

GFSSE_850_thetae_276.txt.gz
Theta_e
343 327 337 328 327 330 332 333 334 332 330 328 326 325 324 325 326 325 325 325 324 324 324 324 325 325 325 324 324 324 324 326 330 334 338 337 337 334 330 326 328 344 344
344 330 336 328 328 330 333 334 335 333 329 326 324 324 325 326 325 324 323 323 323 323 323 323 323 323 323 324 324 324 323 323 323 323 329 334 340 345 340 339 330 328 340
335 336 334 331 331 333 335 336 335 330 326 324 325 325 324 323 323 325 328 331 333 333 333 333 332 330 327 326 325 324 323 323 323 323 323 325 336 341 341 337 340 338 331
340 339 336 337 338 338 336 334 330 325 325 326 325 324 324 330 334 335 336 336 335 334 333 332 332 332 332 332 332 332 332 333 332 330 327 332 336 342 339 335 335 338 339
349 342 340 340 339 334 332 328 325 326 326 324 325 329 334 337 338 341 341 337 336 336 335 334 334 333 332 331 331 331 331 329 329 330 332 339 342 340 338 337 334 332 338
346 337 338 336 331 329 325 326 328 327 326 330 335 338 338 337 337 336 336 336 336 335 335 335 335 335 334 333 332 331 331 331 331 329 339 343 343 342 339 339 340 333 330
346 332 330 329 326 326 326 326 326 333 337 337 336 336 336 335 334 333 333 332 332 333 333 334 334 335 335 335 335 333 332 331 331 330 340 341 341 339 343 342 341 339 325
342 340 329 328 327 326 325 327 333 336 336 336 336 336 334 330 328 326 325 324 323 322 323 325 326 328 331 333 334 334 333 332 331 330 336 339 340 342 342 341 339 335 328
344 344 334 326 325 325 328 333 337 337 336 337 337 332 326 321 316 317 316 315 315 316 315 315 314 314 315 318 323 325 328 330 332 330 330 338 339 339 337 341 336 333 334
341 340 343 327 327 328 334 338 338 338 337 338 334 323 323 323 320 322 322 318 316 315 314 314 316 314 314 313 322 325 327 324 324 329 335 339 338 335 340 340 338 333 334
340 341 343 342 343 342 338 338 337 337 337 337 330 320 325 323 318 322 321 320 318 318 321 321 320 321 323 324 323 322 322 328 328 330 334 336 335 337 336 336 338 333 335
340 343 344 344 341 342 341 340 339 337 335 333 322 319 319 324 320 320 322 322 321 322 322 322 321 323 323 322 322 322 322 322 322 325 328 329 332 333 334 334 334 333 336
344 345 348 346 341 343 342 341 339 337 333 330 325 316 318 322 317 315 319 322 320 322 322 321 322 322 321 321 322 321 321 321 321 321 322 327 327 328 329 332 332 333 334
344 347 345 341 343 345 343 341 339 335 332 328 324 316 316 317 313 319 319 322 321 321 321 321 322 320 322 322 323 323 324 324 322 321 321 322 322 323 323 325 328 333 333
344 348 346 341 344 344 342 340 339 334 332 327 319 317 316 314 311 321 321 321 321 320 319 321 320 322 322 322 323 323 325 325 325 324 323 326 326 324 323 327 326 329 332
343 346 344 345 345 344 342 341 339 336 329 324 318 318 316 312 312 322 321 320 319 319 319 320 321 321 321 322 321 323 323 323 324 324 325 327 327 328 327 327 326 326 332
345 347 347 347 348 343 342 338 333 327 325 322 321 318 316 311 315 320 321 319 317 317 319 319 320 320 320 320 321 321 320 323 322 324 324 324 323 326 326 325 325 330 332
348 347 347 346 342 341 339 336 330 326 324 319 319 318 313 314 316 321 319 313 316 318 319 318 320 320 319 319 318 320 322 321 323 321 324 324 324 324 325 325 326 326 324
348 346 345 340 337 337 337 333 331 321 322 318 319 319 317 319 314 320 317 313 316 317 317 319 318 318 319 320 320 318 318 320 321 321 321 321 321 321 320 319 321 320 319
347 346 341 338 336 334 334 330 325 322 321 318 319 317 316 320 312 317 315 315 314 312 315 318 319 317 317 318 319 318 318 317 318 318 320 320 319 318 318 318 317 317 317
347 344 338 337 335 334 331 326 325 325 322 320 319 316 317 314 318 315 314 313 316 314 306 311 317 317 316 314 317 316 318 318 318 317 315 317 318 317 316 316 316 317 316
345 341 338 336 335 332 326 326 326 324 322 321 319 315 315 315 316 314 314 312 314 314 310 308 312 314 314 313 311 314 317 318 316 316 315 314 316 315 315 314 314 314 314
342 339 336 334 334 330 327 326 325 320 318 319 320 318 315 315 315 314 310 313 312 312 313 310 311 310 311 310 310 310 313 312 310 315 315 312 313 312 313 314 312 313 311
340 337 334 334 332 327 327 321 317 321 322 322 320 319 314 314 314 314 314 313 313 312 311 312 311 311 310 307 307 307 308 307 307 308 311 308 312 313 310 309 309 309 308
339 336 335 334 331 329 323 320 319 323 322 320 319 316 316 310 314 314 314 315 315 313 313 311 312 309 308 308 307 307 307 307 307 308 307 308 306 307 306 306 305 305 305
338 336 334 333 331 328 319 322 319 322 321 320 318 316 316 315 314 314 314 314 312 314 312 313 312 309 307 307 308 308 307 307 307 307 308 308 307 308 308 307 307 307 306

GFSSE_850_thetae_279.txt.gz
Theta_e
335 335 330 328 330 333 334 334 333 331 327 325 324 323 324 325 324 323 323 322 322 323 323 322 322 322 322 322 322 323 323 323 324 329 335 336 339 338 337 331 325 328 338
333 334 331 329 331 333 335 335 334 330 325 323 323 324 324 323 322 323 326 329 332 333 333 333 332 330 327 326 324 323 323 322 322 322 322 327 333 342 341 339 339 337 326
334 334 331 329 332 334 335 335 331 326 323 323 324 323 323 326 331 334 334 334 334 333 333 332 331 332 332 332 331 331 331 331 331 328 324 322 333 336 343 338 338 339 337
333 334 332 332 335 336 334 330 325 323 324 324 323 325 330 333 335 337 336 335 335 334 333 333 332 332 331 330 329 329 329 329 328 329 331 330 338 343 339 339 335 334 337
335 335 336 337 335 330 329 324 324 324 324 325 329 334 336 335 335 335 334 334 334 333 333 333 333 332 332 332 331 330 329 329 329 328 328 340 342 343 344 337 337 336 331
339 335 335 332 328 327 324 323 324 324 329 334 335 334 334 334 334 333 331 331 330 330 330 330 331 332 333 333 333 333 331 330 328 328 332 341 342 342 343 341 338 340 337
334 333 329 327 326 324 324 324 329 334 335 334 335 335 333 330 327 324 322 320 318 317 317 319 319 322 324 326 329 330 332 331 330 329 330 339 339 342 342 338 339 341 334
333 328 327 326 324 324 324 329 333 334 335 336 336 331 326 320 317 316 316 316 316 316 316 315 314 314 314 315 316 320 322 323 324 328 331 334 337 340 341 337 330 336 333
329 327 325 324 323 325 328 333 335 336 336 337 331 324 320 316 317 319 320 319 317 315 315 317 317 316 316 315 321 323 324 323 325 328 331 334 336 339 339 333 330 338 334
331 323 323 323 324 328 334 336 336 336 337 337 330 322 318 318 319 320 321 320 319 319 321 320 319 321 321 322 322 322 322 324 327 322 324 337 338 338 337 338 339 338 335
337 326 328 339 336 335 336 336 336 337 337 335 326 320 318 320 319 319 320 321 321 321 321 319 322 321 320 318 317 320 321 322 322 321 322 327 332 335 335 335 335 335 333
339 341 337 340 338 339 339 339 337 336 336 333 320 317 318 319 318 315 317 320 320 321 319 320 322 320 320 322 323 323 323 321 320 321 322 327 325 326 328 330 332 332 333
340 342 342 341 339 336 340 339 337 337 336 333 324 316 317 317 314 314 317 320 319 319 317 320 318 321 322 323 323 323 324 323 321 321 322 327 325 323 323 323 325 329 331
343 343 343 341 342 341 342 340 338 339 335 333 326 316 316 316 313 316 320 320 318 315 315 317 321 321 323 323 322 321 324 324 324 322 326 326 326 325 323 322 322 323 326
343 346 344 343 342 342 341 340 339 337 333 334 320 317 316 313 314 318 319 316 315 315 318 320 321 321 322 321 321 322 322 322 322 323 324 325 325 326 327 328 325 326 326
346 346 344 343 342 341 342 341 339 337 335 327 319 318 315 312 315 316 316 314 314 317 319 320 320 320 321 318 320 318 320 322 323 323 322 322 323 324 323 325 325 327 328
345 346 345 342 339 341 342 341 337 331 328 323 319 318 313 311 312 314 314 309 315 318 319 319 320 320 319 319 318 321 321 320 321 322 323 323 323 324 325 325 326 328 329
343 343 343 340 341 344 341 337 334 328 325 319 319 319 313 311 312 314 313 310 316 318 318 317 318 319 319 320 318 318 317 320 320 320 320 319 320 320 321 322 323 322 320
343 343 342 344 342 341 339 336 333 327 321 319 320 317 313 311 312 312 313 310 313 314 312 315 316 317 316 318 319 318 317 320 318 318 318 318 318 318 318 317 317 317 317
345 346 345 343 342 338 336 335 331 320 321 320 319 315 312 311 312 312 313 312 313 310 306 317 318 317 315 315 318 318 318 318 316 315 316 316 317 316 316 316 316 315 315
347 347 346 342 338 335 334 332 324 322 322 320 319 314 311 310 310 312 310 314 314 311 304 313 317 316 314 311 314 315 318 320 319 316 314 312 316 315 315 314 315 313 314
347 347 346 342 337 334 333 327 325 324 322 321 317 315 311 309 308 309 309 313 312 311 306 308 314 311 311 309 308 313 314 317 310 316 313 312 312 311 313 311 311 311 313
347 347 346 341 337 334 327 326 326 324 321 319 319 318 314 310 307 307 310 310 310 307 307 308 308 311 309 307 307 308 311 307 314 315 313 312 312 311 310 311 310 309 309
347 346 344 340 336 332 327 327 326 325 319 321 320 318 315 309 309 309 307 310 312 311 307 307 307 308 307 306 306 307 309 307 308 308 309 310 313 309 307 306 306 306 306
347 346 341 338 334 329 328 327 325 321 322 322 320 318 312 310 312 311 312 312 314 312 311 309 306 305 306 307 307 307 307 307 307 307 307 307 307 306 306 307 308 306 306
343 343 339 334 333 328 328 326 321 323 322 321 320 315 314 314 313 313 314 313 312 313 310 312 310 305 307 308 308 307 307 307 307 307 307 307 307 307 306 308 308 306 306

GFSSE_850_thetae_282.txt.gz
Theta_e
332 327 326 329 332 333 333 333 330 327 324 322 322 323 323 322 321 321 323 325 327 329 330 330 329 327 325 323 323 322 322 322 323 327 334 338 336 332 327 330 333 334 332
331 327 327 330 333 334 334 333 330 325 322 322 323 322 322 324 328 331 332 333 333 333 332 331 331 331 331 331 331 330 330 329 325 322 323 328 338 343 338 336 337 338 334
331 328 327 330 332 334 334 331 325 322 322 323 322 323 328 331 333 335 334 334 333 333 332 332 332 331 330 329 328 328 328 328 329 331 329 323 329 336 337 342 336 336 335
331 329 328 330 333 335 331 326 322 323 323 322 326 331 333 333 333 332 332 332 331 330 330 331 331 331 332 331 330 329 328 328 329 328 329 332 335 342 343 339 336 334 333
331 330 330 334 336 330 326 322 323 322 324 331 333 332 332 332 332 331 330 329 329 328 328 328 329 330 330 331 331 331 331 330 329 329 332 341 342 340 342 340 336 335 336
332 333 336 336 329 325 322 322 323 329 332 332 333 333 331 329 327 325 321 318 317 317 317 317 318 319 321 324 326 328 330 330 331 330 330 338 340 341 342 341 340 338 339
336 337 334 328 325 323 323 325 332 333 333 333 333 330 326 321 316 316 316 317 317 317 316 316 316 315 315 315 317 319 320 323 325 327 330 330 336 338 341 341 339 339 338
328 331 327 326 323 323 324 331 333 333 334 334 331 326 320 316 317 319 319 318 317 316 315 315 316 315 315 314 315 318 319 321 324 326 328 333 334 337 339 339 337 338 327
328 327 325 324 323 324 330 333 333 334 335 334 328 322 316 317 318 319 319 318 316 317 317 317 318 318 318 319 319 320 320 321 327 324 325 332 334 337 340 338 329 330 337
328 325 323 323 324 328 333 334 334 335 336 334 328 319 317 319 318 318 318 319 318 318 318 316 317 318 317 315 318 320 321 321 324 323 324 329 337 338 337 337 338 337 336
326 323 322 325 328 332 334 334 335 337 336 333 324 318 318 319 318 317 318 318 318 318 318 317 317 319 321 321 321 321 320 320 321 321 327 331 332 333 333 334 335 334 334
322 325 333 332 332 335 335 335 336 335 335 331 320 317 318 318 316 315 316 318 317 316 314 315 318 321 321 322 322 322 323 323 320 320 321 324 324 324 325 326 327 329 331
337 334 337 335 334 338 338 336 335 336 336 333 322 317 317 317 314 315 317 315 314 312 313 317 320 321 322 321 320 320 323 323 323 323 322 324 324 323 323 322 322 322 324
339 338 340 339 337 340 339 337 338 338 337 333 324 317 316 315 314 315 316 315 313 312 316 319 320 321 320 319 320 321 321 320 321 323 323 323 325 324 325 325 325 324 324
339 342 341 340 340 341 341 340 338 337 336 334 320 317 315 313 314 315 316 315 311 313 318 320 320 320 317 318 318 318 320 321 322 321 321 324 325 322 325 324 323 326 325
339 342 342 342 341 342 341 340 338 337 338 332 319 318 314 313 314 315 313 309 312 314 316 319 319 319 319 319 320 320 316 317 318 322 322 322 323 324 324 325 326 326 327
340 342 343 343 342 342 341 339 339 338 336 327 319 318 314 313 313 313 310 309 312 313 313 318 320 319 319 318 319 319 316 317 315 317 319 319 320 321 323 324 324 324 324
342 344 343 343 343 343 342 341 341 337 331 325 319 318 314 312 313 313 309 309 310 312 312 315 319 318 319 318 318 319 317 316 315 314 312 316 317 317 317 317 321 322 322
344 344 344 344 343 342 340 341 337 334 328 322 319 318 314 312 312 312 309 309 308 306 307 314 316 316 313 319 318 317 318 317 315 315 311 312 316 315 315 315 315 315 317
343 343 343 343 341 340 340 338 334 332 328 320 319 316 314 313 312 311 308 308 307 304 307 314 315 314 312 314 318 318 318 317 317 314 310 314 312 313 314 314 314 315 316
344 343 342 342 341 340 339 336 333 331 322 320 319 315 312 312 312 310 307 308 307 304 305 314 316 314 310 310 316 316 319 319 316 314 312 312 311 311 310 307 307 309 311
345 344 343 344 343 340 336 335 333 326 322 321 318 315 311 310 310 307 307 308 307 306 304 312 312 310 308 308 313 317 320 315 314 316 314 313 311 310 311 310 308 306 307
345 344 343 344 343 339 335 332 325 324 323 321 318 317 313 309 306 306 307 307 307 305 304 306 309 310 308 307 307 312 308 307 315 315 314 314 311 312 311 309 307 306 306
344 345 345 343 342 337 334 329 327 327 325 320 320 318 314 309 307 306 306 306 308 308 305 305 305 308 307 306 308 308 307 307 308 307 307 313 312 310 308 306 306 306 306
343 342 336 339 336 334 331 329 327 326 323 319 321 318 313 310 309 307 308 308 309 310 307 306 303 306 306 306 306 307 307 307 307 307 307 306 307 307 306 305 305 305 306
344 342 342 341 337 334 330 328 326 325 322 321 321 319 313 312 312 311 309 309 309 311 309 308 305 306 307 307 307 306 306 306 306 307 307 307 307 307 307 307 307 307 307

GFSSE_850_thetae_285.txt.gz
Theta_e
342 326 327 329 330 332 331 330 327 324 322 321 322 322 321 320 322 325 328 331 332 332 332 332 332 331 329 328 326 324 323 323 323 326 333 337 335 334 332 335 336 336 332
340 326 327 330 332 333 333 331 326 323 321 322 321 321 323 328 331 332 332 332 332 331 331 330 330 329 329 329 329 329 330 330 328 324 323 328 339 342 340 338 337 336 335
332 327 328 331 333 334 333 329 324 322 322 321 322 328 331 332 332 331 331 331 331 331 331 330 330 331 330 329 329 328 328 329 329 330 330 324 324 332 338 342 339 336 336
330 327 328 331 333 334 331 325 321 322 321 324 330 331 331 330 330 330 330 329 329 329 329 329 330 330 330 331 331 330 330 329 329 330 329 331 326 339 343 339 340 337 335
330 328 329 331 334 333 326 322 322 321 328 331 331 331 331 330 329 326 325 323 321 321 321 321 323 324 326 328 330 331 332 331 330 329 330 333 333 340 341 340 339 337 336
330 329 330 333 335 328 322 322 323 331 331 331 332 331 329 325 322 317 316 316 317 317 317 316 316 316 316 317 320 324 327 329 330 330 329 335 340 341 338 340 339 338 338
330 330 333 335 328 323 322 325 332 332 332 333 331 326 321 316 316 317 319 318 318 317 316 315 315 315 315 315 315 316 318 321 322 323 327 328 335 340 339 340 340 338 337
332 334 335 328 324 323 325 332 333 333 334 332 327 320 316 317 319 319 319 318 317 315 316 315 315 315 315 315 315 317 319 321 322 323 325 328 330 337 338 339 340 337 338
333 332 327 324 323 323 330 333 333 334 334 330 324 318 316 318 318 319 319 318 317 316 317 316 318 317 315 316 317 318 319 319 321 325 324 330 333 338 339 339 337 331 334
331 327 324 323 322 327 332 333 333 335 335 332 324 318 318 319 318 318 317 317 318 319 317 316 315 315 317 318 318 317 318 320 320 322 323 330 337 338 339 338 336 334 336
330 326 323 322 324 330 333 334 335 336 335 331 323 318 318 319 318 317 317 318 318 317 315 315 316 318 319 320 321 322 321 319 318 320 326 331 332 333 333 334 335 335 334
326 323 322 324 328 332 333 334 335 335 334 331 324 318 318 318 317 316 316 317 315 313 314 316 319 319 319 318 317 319 322 322 321 320 320 324 324 323 324 324 325 325 327
322 322 325 328 331 333 334 334 334 335 334 332 326 317 317 317 315 316 316 315 313 311 314 318 320 319 316 317 318 319 320 319 321 322 321 323 323 322 322 322 322 322 322
330 330 332 332 333 336 337 336 335 336 336 333 331 317 316 316 315 316 315 314 312 313 317 319 319 317 317 317 317 318 320 321 321 321 321 322 324 325 324 321 323 323 324
336 336 335 336 333 337 339 338 337 337 336 335 329 318 317 315 315 315 314 313 311 314 317 318 318 317 317 318 317 315 316 318 321 322 321 323 324 322 324 325 325 326 326
337 339 340 340 338 339 339 339 339 337 336 335 327 318 317 314 315 314 312 310 312 313 316 318 318 318 317 318 316 315 313 313 314 317 318 319 324 325 324 324 324 324 324
338 338 340 341 340 340 340 340 339 337 337 335 325 318 317 314 313 312 310 309 311 313 314 319 319 318 317 317 317 316 315 314 313 311 313 316 317 319 322 322 323 323 323
338 338 340 342 341 341 340 341 339 338 338 332 323 318 317 313 312 311 309 308 309 311 312 315 319 318 318 318 317 317 317 315 313 310 312 314 314 315 315 315 315 320 320
337 338 340 342 342 341 341 340 340 339 335 331 322 318 316 312 311 310 309 308 307 305 309 312 318 317 316 318 318 317 318 316 314 309 309 309 311 313 312 308 311 317 318
337 339 341 343 342 342 342 342 341 336 333 329 320 318 315 311 311 310 308 308 306 303 308 311 313 312 310 316 318 318 318 318 315 311 311 310 310 309 307 307 306 310 313
339 340 343 343 343 342 343 342 339 336 332 327 319 318 314 310 310 309 308 308 306 303 308 312 315 313 308 311 316 317 319 312 316 314 312 311 310 308 307 307 306 306 305
341 342 344 344 344 343 342 340 338 334 331 321 320 317 313 310 309 309 307 307 305 304 306 311 312 310 308 307 313 316 319 313 317 316 314 312 311 311 309 306 306 306 306
345 345 345 344 343 338 342 340 336 332 326 322 320 317 314 310 308 308 307 307 306 304 304 307 309 308 307 306 311 314 317 311 311 311 313 313 312 312 310 306 306 306 306
346 346 345 344 342 336 337 337 334 332 325 324 319 318 314 309 307 306 307 307 308 306 304 303 305 306 306 306 307 308 307 309 308 307 310 313 311 311 309 305 305 305 306
342 344 344 342 336 330 329 330 332 328 327 322 318 318 314 310 308 307 308 308 307 306 306 302 305 306 305 306 307 307 306 306 306 307 306 306 306 307 306 307 307 305 307
338 334 340 339 330 329 333 333 329 326 325 322 319 319 314 311 310 310 311 309 308 307 306 305 303 306 307 306 306 306 306 306 306 307 307 307 306 307 307 307 306 307 307

GFSSE_850_thetae_288.txt.gz
Theta_e
335 330 327 327 328 329 329 328 324 322 321 321 322 321 320 321 324 328 330 331 331 331 330 330 331 331 330 330 328 326 323 322 322 326 334 336 333 334 334 335 336 335 333
334 327 326 329 331 331 331 329 324 321 321 321 320 322 327 330 331 331 330 330 329 329 328 329 329 328 328 328 328 328 329 329 326 323 322 329 338 339 340 337 336 335 335
336 326 327 331 332 333 332 327 322 321 321 320 325 330 332 330 329 329 329 329 328 328 328 328 329 329 329 329 329 328 328 329 329 330 327 323 325 332 335 340 339 336 335
335 326 328 331 333 333 330 324 321 321 321 328 332 333 330 331 330 329 328 327 327 326 326 326 327 328 329 330 330 330 329 328 329 329 330 330 324 331 337 338 338 337 335
329 327 329 331 333 333 327 322 321 321 329 331 330 331 331 329 327 323 320 318 318 317 317 318 318 319 321 324 326 328 330 330 330 328 329 330 330 329 340 341 339 338 335
329 328 329 331 334 330 323 321 322 330 331 331 331 329 327 323 317 316 317 317 317 317 317 316 316 316 315 315 316 318 321 324 328 329 328 328 334 335 340 339 337 338 337
329 329 330 333 333 325 321 322 330 331 331 331 328 324 318 316 318 319 319 318 318 317 316 316 315 315 315 315 315 315 317 318 320 321 324 327 333 339 339 338 338 338 337
330 330 332 334 325 322 322 330 331 331 333 329 323 318 317 318 319 319 319 318 317 317 317 315 316 316 315 314 315 316 317 317 319 320 322 322 329 337 338 339 340 339 338
330 332 334 327 323 321 327 331 331 333 332 327 322 318 317 318 318 318 318 318 317 317 316 315 314 316 316 316 315 315 317 318 318 320 324 327 332 334 338 338 339 338 335
332 333 328 324 322 324 330 332 333 334 333 329 323 318 319 319 319 318 317 317 317 315 314 314 316 318 318 319 319 319 318 316 317 322 323 329 336 337 339 339 338 335 330
332 330 325 322 322 328 332 333 333 334 334 329 322 319 318 319 318 317 316 317 315 313 312 314 317 318 317 316 315 318 319 318 319 320 325 328 330 332 333 333 334 334 335
332 327 324 322 323 329 333 333 334 335 333 329 325 319 318 318 317 316 316 316 313 311 313 316 319 317 314 313 315 317 318 318 319 320 320 323 325 323 323 323 323 324 325
327 325 322 322 326 331 333 333 334 334 334 332 332 321 317 317 316 316 316 314 312 312 315 318 317 314 315 315 318 318 319 319 319 321 321 321 321 321 321 322 322 322 322
324 321 322 324 328 330 332 333 333 335 335 333 333 321 318 317 315 316 314 312 311 311 315 318 317 316 316 314 314 315 318 320 321 320 323 321 321 323 323 323 323 323 323
323 322 325 327 330 332 334 333 334 336 336 335 333 322 318 317 316 315 313 310 310 312 317 317 317 317 316 314 313 312 312 315 317 318 321 324 325 325 326 326 325 324 324
326 330 329 330 331 333 335 336 337 337 337 336 333 322 318 316 315 313 311 309 309 311 314 318 317 317 316 316 315 314 313 312 311 311 315 317 320 323 323 324 324 324 324
334 336 332 335 335 335 337 336 338 338 336 336 332 321 318 316 314 312 310 308 308 309 313 318 318 317 316 316 316 315 314 312 311 309 309 312 315 315 316 319 320 321 321
339 334 335 338 339 339 339 339 339 338 336 337 332 324 318 316 313 311 309 307 307 309 311 316 318 317 317 317 317 317 315 311 309 308 308 312 312 307 309 315 318 319 320
340 336 337 339 340 339 340 340 340 337 336 336 329 323 318 316 312 310 308 306 306 305 308 312 316 317 317 318 317 318 316 314 311 309 309 309 306 307 307 306 315 315 314
340 340 338 339 340 340 340 340 339 336 337 332 329 322 318 314 311 309 308 306 305 303 308 312 313 311 310 317 318 318 318 317 313 311 310 308 306 306 307 306 306 305 305
339 340 339 339 341 340 340 340 334 338 336 331 330 320 317 313 310 309 307 306 305 303 307 312 312 311 307 311 317 319 319 313 314 312 311 309 307 307 307 306 306 306 306
338 339 340 340 342 341 339 335 333 330 328 329 327 320 317 313 310 308 306 306 304 303 306 312 313 309 306 307 315 318 314 316 316 315 313 311 310 308 307 306 306 306 306
342 340 340 340 341 338 337 337 336 328 326 326 324 320 316 313 309 307 306 305 305 304 305 308 308 306 305 306 314 316 318 312 311 310 313 313 311 309 308 306 306 305 306
344 344 343 341 331 330 338 337 332 330 328 328 322 318 317 313 309 306 306 306 306 305 303 303 305 306 305 306 308 310 310 311 308 307 312 311 309 309 310 305 307 305 306
344 344 341 340 329 335 338 332 332 331 332 328 322 318 317 312 309 307 306 307 307 306 304 303 304 305 305 305 306 306 306 306 306 307 306 306 306 307 307 307 307 306 306
333 329 331 338 331 329 332 330 329 332 332 326 323 318 318 312 310 308 310 309 307 307 306 303 304 305 305 305 305 306 306 305 306 306 307 307 306 305 306 306 306 305 307

GFSSE_850_thetae_291.txt.gz
Theta_e
334 335 332 333 328 327 326 325 323 321 321 322 321 321 321 323 328 330 331 331 331 331 330 330 330 331 330 330 329 327 324 322 322 325 333 334 333 335 334 334 334 340 333
333 332 327 328 329 329 329 326 323 321 322 321 321 326 330 338 332 331 330 330 329 328 329 329 329 329 328 327 327 327 327 329 328 324 322 327 335 337 339 337 335 339 334
331 329 327 330 331 331 330 325 322 322 321 323 329 337 334 331 330 329 328 328 328 328 328 328 329 329 329 329 328 327 327 327 327 328 329 325 323 332 336 338 340 337 335
330 326 329 331 332 333 329 323 321 321 324 330 332 330 330 329 329 327 326 324 323 322 321 321 323 324 326 328 329 330 329 328 327 328 328 329 328 323 332 337 338 339 337
332 326 330 332 333 332 326 321 321 321 329 331 330 330 329 327 323 318 317 316 317 317 317 316 316 316 316 317 319 323 326 328 329 328 328 328 329 327 330 340 341 340 337
329 327 330 332 333 330 323 321 321 329 330 330 330 328 324 319 316 318 318 318 318 317 316 316 315 315 315 315 315 315 317 319 322 326 328 328 329 332 330 339 338 338 337
328 328 330 332 333 326 322 321 329 330 331 330 326 321 317 317 318 319 319 319 318 317 316 315 314 313 313 313 314 314 314 316 320 326 320 322 328 335 338 338 337 338 338
329 329 330 333 330 323 322 327 331 331 331 327 321 318 317 318 319 319 318 318 318 317 315 314 313 313 312 312 312 314 316 315 325 328 331 336 328 334 338 338 339 339 339
329 329 332 334 326 322 324 331 331 332 331 327 322 318 317 318 319 318 318 317 317 315 313 312 314 315 315 315 315 315 314 314 327 329 331 335 332 334 336 339 339 339 339
330 331 334 329 324 323 330 331 331 333 331 328 323 319 319 319 319 318 317 317 315 312 312 314 315 315 315 314 314 315 315 318 327 329 331 332 336 337 338 339 339 338 336
330 333 333 326 323 324 331 331 332 333 333 329 323 320 319 319 318 317 317 316 313 311 313 314 314 313 312 313 314 316 318 326 326 328 331 326 327 330 331 332 334 334 334
331 333 329 324 322 327 331 331 332 334 332 329 327 321 319 318 317 316 316 315 312 312 315 316 315 313 315 320 319 320 325 325 327 328 328 322 323 323 323 324 324 324 327
330 330 326 323 323 328 331 331 333 334 333 332 331 323 318 317 316 316 316 313 311 313 316 316 315 314 312 314 316 323 325 326 326 328 325 321 322 322 321 322 323 323 323
330 327 325 323 323 328 331 332 334 333 334 333 333 324 318 317 316 316 314 311 310 313 317 316 315 314 313 312 315 322 323 324 326 326 325 325 326 326 327 326 326 327 326
327 325 323 322 324 329 330 332 333 334 335 335 334 327 319 317 316 315 312 310 309 312 316 317 317 316 314 313 313 312 313 315 316 322 325 324 325 325 326 326 326 326 325
330 323 322 323 326 329 331 333 333 335 336 335 334 327 320 317 316 314 311 309 309 310 314 317 317 316 315 317 314 314 313 313 311 315 320 321 321 322 322 323 323 323 323
334 324 323 324 327 330 333 335 335 336 336 336 335 328 320 317 316 313 310 308 307 309 312 316 317 317 315 317 315 313 312 311 309 308 316 318 320 317 318 319 320 321 321
340 332 325 326 327 332 335 336 336 337 336 335 331 328 320 317 315 311 309 307 307 307 309 314 318 317 316 317 316 316 311 310 309 308 309 309 312 315 318 320 319 318 317
339 340 331 327 328 332 336 336 337 336 334 332 328 325 320 318 314 311 309 306 305 305 306 312 316 317 317 317 318 317 315 313 310 309 306 306 307 308 314 308 307 306 309
340 340 340 331 331 332 336 336 336 335 330 329 325 322 319 316 312 310 308 306 304 303 306 311 312 314 310 317 320 319 319 315 311 309 307 308 306 307 311 309 310 309 306
340 340 340 340 333 335 335 337 336 335 331 329 324 321 318 315 311 309 307 305 304 303 306 308 310 311 308 310 320 319 319 315 313 311 310 308 307 308 309 310 310 309 309
336 338 339 340 337 337 338 337 336 335 334 331 325 320 318 314 311 309 306 305 304 303 305 308 309 311 308 307 318 319 318 317 316 314 313 312 309 308 311 309 308 306 308
336 337 338 339 339 334 329 331 336 332 332 331 329 321 318 315 311 307 306 305 304 304 304 306 307 306 305 306 313 318 318 316 315 313 313 314 312 312 310 307 306 309 306
338 338 339 339 338 329 329 332 331 329 333 331 332 322 317 315 310 307 305 305 305 304 303 304 305 305 305 308 314 317 313 313 313 311 310 310 310 308 310 309 306 307 305
339 338 338 339 339 334 329 333 334 332 332 331 331 323 318 316 310 308 306 307 305 304 303 303 304 305 305 306 307 306 306 306 307 309 309 309 308 308 308 307 306 307 306
340 343 339 339 337 333 332 329 335 335 331 330 331 323 318 317 311 309 310 309 305 305 304 303 304 305 305 304 304 305 308 308 308 308 308 308 307 307 307 307 308 308 307

GFSSE_850_thetae_297.txt.gz
Theta_e
349 343 342 340 329 324 323 322 322 323 323 322 322 321 321 323 328 331 333 330 330 329 328 327 327 327 327 328 328 328 328 328 327 324 323 330 333 334 334 333 343 349 337
350 342 342 337 326 325 324 323 322 322 322 321 323 336 330 331 331 330 329 329 328 327 327 327 327 327 327 327 327 327 326 326 326 327 328 327 337 333 335 337 336 339 335
348 345 342 328 327 327 325 323 322 322 322 325 334 335 333 330 329 328 327 326 324 322 321 320 320 320 321 323 325 326 327 327 326 326 331 336 339 336 330 335 335 340 338
347 345 336 328 329 329 325 322 322 322 331 336 336 332 330 329 327 323 319 317 317 318 318 318 317 317 317 317 317 318 320 323 325 325 333 334 333 336 336 325 336 341 339
345 344 334 331 331 329 324 322 323 333 331 335 331 330 328 323 317 317 319 319 319 319 318 317 315 314 314 314 314 314 314 315 317 331 332 333 333 341 338 333 333 345 341
344 345 331 332 332 328 323 323 337 332 335 331 330 327 321 317 319 319 319 319 319 318 315 313 312 311 311 311 311 311 311 311 328 332 331 334 341 339 332 335 332 338 339
342 347 333 333 332 326 322 331 331 331 331 331 326 320 317 319 319 319 319 319 318 314 312 310 310 310 310 310 310 310 310 316 327 330 337 343 339 330 336 339 338 338 339
341 343 336 333 332 324 323 334 331 332 331 326 320 318 318 319 319 319 319 318 315 311 310 310 310 310 310 310 310 310 311 330 333 331 340 339 334 334 338 340 340 339 339
340 342 343 339 330 323 341 327 332 332 328 323 319 318 319 320 319 319 319 316 313 310 309 310 310 310 310 310 309 312 324 329 331 332 337 333 332 333 336 338 338 339 338
339 341 341 342 338 341 329 332 332 332 328 325 321 320 321 324 325 321 323 314 311 310 310 310 310 316 320 314 313 324 328 329 329 335 334 328 327 331 334 335 336 336 336
339 339 340 339 339 340 342 333 332 332 330 327 323 321 330 333 331 329 317 313 311 311 311 311 316 323 326 327 325 327 328 328 333 333 331 327 324 323 324 325 325 325 326
338 339 340 338 338 341 342 337 338 336 336 338 334 331 332 330 326 322 323 322 316 322 323 322 321 322 325 326 327 327 327 332 331 331 328 324 326 328 327 328 328 329 329
338 339 340 339 339 341 340 339 338 338 337 337 334 333 329 328 328 327 326 326 326 324 326 324 323 322 324 325 325 326 327 331 327 331 327 328 329 328 328 328 328 328 328
338 340 340 340 341 342 340 338 338 337 336 336 335 329 327 329 328 325 324 324 324 324 325 324 324 322 322 321 322 322 323 327 329 327 326 325 327 328 328 328 328 326 325
338 341 341 342 342 343 341 339 338 337 336 336 334 332 330 329 325 327 323 324 323 323 324 325 324 323 322 321 321 321 321 322 324 327 325 320 323 325 326 326 325 324 323
339 342 341 341 342 342 341 341 339 337 335 335 333 333 328 328 326 326 325 323 323 323 323 324 325 323 322 322 322 321 321 321 321 322 326 323 319 317 321 321 322 321 320
340 342 343 340 342 343 342 341 339 337 335 335 335 335 324 322 322 320 324 322 321 322 317 323 324 323 323 322 322 321 320 321 320 320 319 324 324 319 315 317 318 317 317
340 342 342 339 341 341 341 339 338 335 333 333 335 335 328 322 319 321 321 320 320 321 322 323 325 324 323 323 323 321 320 320 320 318 318 317 318 319 313 309 308 306 308
344 343 340 339 342 343 335 332 333 333 334 335 335 334 330 324 318 318 320 319 312 320 320 321 321 324 324 323 323 323 322 320 320 319 318 318 317 317 316 315 313 313 311
348 347 343 341 342 335 331 330 333 333 334 335 334 332 333 325 319 315 320 313 316 318 320 320 320 319 321 322 322 323 323 321 320 320 319 318 317 316 316 315 315 314 313
349 350 348 343 341 337 332 333 333 332 332 334 334 334 332 325 320 314 319 317 315 319 321 318 319 317 316 317 321 323 322 321 320 321 319 319 318 317 316 315 315 314 314
349 351 348 346 342 341 335 332 333 333 332 332 334 333 332 330 319 316 313 316 313 317 319 319 318 320 316 315 320 323 324 323 323 321 320 319 318 317 316 316 315 315 315
349 349 350 349 343 342 339 334 334 329 329 330 333 333 329 329 325 314 311 313 311 314 318 318 317 317 317 315 316 323 323 322 323 322 320 318 318 315 316 316 316 313 313
347 349 347 348 343 341 339 336 332 329 330 330 331 331 330 329 329 316 312 308 306 316 316 315 316 316 310 315 315 315 320 320 318 318 318 317 316 315 314 314 314 313 313
346 346 343 338 340 339 338 334 332 331 332 332 331 330 330 329 329 317 312 311 308 312 312 313 312 306 314 316 315 316 316 315 314 314 313 315 315 313 313 313 313 313 313
343 340 341 340 341 340 339 334 332 332 333 333 331 330 330 329 328 317 312 309 310 312 306 309 308 310 315 313 314 313 313 313 314 313 313 313 313 314 314 314 314 313 313